Location: St. Louis
(38.6270°N, 90.1994°W)
Time: 00:19:55
(UTC-05:00)

ISS - Pass Details

Date: 16 March 2014
Orbit: 402 x 403 km, 51.6° (Epoch: 24 June)

Event Time Altitude Azimuth Distance (km) Brightness Sun altitude
Exits shadow 05:02:05 22° 17° (NNE) 1,019 -1.0 -25.5°
Drops below altitude 10° 05:03:43 10° 36° (NE) 1,558 0.3 -25.2°
Enters shadow 05:59:10 -70° 239° (WSW) 12,464 4.1 -14.7°
